| time (UTC) | temp F | wind direction | speed knots | gust knots | rain 1hr in | rain 24hr in | rain mn in | humidity % | barometer mb |
| 20260504190006 | 62 | 289 | 12.2 | 19.1 | 0.00 | 0.00 | 0.00 | 26 | 1012.0 |
| 20260504185502 | 60 | 281 | 9.6 | 17.4 | 0.00 | 0.00 | 0.00 | 28 | 1011.7 |
| 20260504185002 | 59 | 313 | 7.0 | 17.4 | 0.00 | 0.00 | 0.00 | 28 | 1011.8 |
| 20260504184002 | 60 | 303 | 8.7 | 16.5 | 0.00 | 0.00 | 0.00 | 27 | 1012.0 |
| 20260504183502 | 60 | 349 | 10.4 | 19.1 | 0.00 | 0.00 | 0.00 | 27 | 1012.0 |
| 20260504183002 | 59 | 265 | 11.3 | 17.4 | 0.00 | 0.00 | 0.00 | 27 | 1011.8 |
| 20260504182502 | 59 | 266 | 11.3 | 19.1 | 0.00 | 0.00 | 0.00 | 28 | 1011.8 |
| 20260504181502 | 58 | 255 | 8.7 | 12.2 | 0.00 | 0.00 | 0.00 | 32 | 1012.0 |
| 20260504181002 | 57 | 272 | 9.6 | 13.0 | 0.00 | 0.00 | 0.00 | 35 | 1012.2 |
| 20260504180005 | 56 | 233 | 10.4 | 13.9 | 0.00 | 0.00 | 0.00 | 37 | 1012.2 |
| 20260504175503 | 55 | 248 | 11.3 | 16.5 | 0.00 | 0.00 | 0.00 | 37 | 1012.3 |
| 20260504175002 | 56 | 248 | 13.9 | 17.4 | 0.00 | 0.00 | 0.00 | 37 | 1012.5 |
| 20260504174502 | 56 | 273 | 16.5 | 22.6 | 0.00 | 0.00 | 0.00 | 37 | 1012.4 |
| 20260504174002 | 57 | 243 | 16.5 | 22.6 | 0.00 | 0.00 | 0.00 | 36 | 1012.5 |
| 20260504173503 | 58 | 253 | 13.9 | 26.1 | 0.00 | 0.00 | 0.00 | 33 | 1012.5 |
| 20260504172502 | 60 | 307 | 11.3 | 19.1 | 0.00 | 0.00 | 0.00 | 27 | 1012.5 |
| 20260504172002 | 60 | 308 | 12.2 | 19.1 | 0.00 | 0.00 | 0.00 | 28 | 1012.4 |
| 20260504171502 | 60 | 305 | 13.0 | 20.0 | 0.00 | 0.00 | 0.00 | 27 | 1012.5 |
| 20260504171002 | 60 | 336 | 13.9 | 20.0 | 0.00 | 0.00 | 0.00 | 28 | 1012.5 |
| 20260504170502 | 60 | 305 | 14.8 | 21.7 | 0.00 | 0.00 | 0.00 | 27 | 1012.6 |
| 20260504151000 | 55 | 281 | 13.0 | 19.1 | 0.00 | 0.00 | 0.00 | 31 | 1012.7 |
| 20260504150501 | 54 | 283 | 12.2 | 16.5 | 0.00 | 0.00 | 0.00 | 33 | 1012.8 |
| 20260504141001 | 53 | 285 | 13.9 | 18.2 | 0.00 | 0.00 | 0.00 | 31 | 1013.0 |
| 20260504140501 | 53 | 276 | 13.0 | 18.2 | 0.00 | 0.00 | 0.00 | 31 | 1012.8 |
| 20260504130502 | 48 | 270 | 10.4 | 13.9 | 0.00 | 0.00 | 0.00 | 35 | 1012.7 |
| 20260504110501 | 47 | 285 | 11.3 | 13.9 | 0.00 | 0.00 | 0.00 | 34 | 1012.3 |
| 20260504100501 | 46 | 295 | 8.7 | 12.2 | 0.00 | 0.00 | 0.00 | 34 | 1012.6 |
| 20260504082001 | 38 | 134 | 0.0 | 0.0 | 0.00 | 0.00 | 0.00 | 46 | 1013.5 |
| 20260504081501 | 37 | 134 | 0.0 | 0.0 | 0.00 | 0.00 | 0.00 | 49 | 1013.6 |
| 20260504080501 | 38 | 134 | 0.0 | 0.9 | 0.00 | 0.00 | 0.00 | 48 | 1013.6 |
| 20260504050502 | 41 | 249 | 2.6 | 2.6 | 0.00 | 0.00 | 0.00 | 43 | 1014.9 |
| 20260504050004 | 42 | 253 | 2.6 | 3.5 | 0.00 | 0.00 | 0.00 | 42 | 1014.9 |
| 20260504045502 | 43 | 248 | 2.6 | 3.5 | 0.00 | 0.00 | 0.00 | 40 | 1015.0 |
| 20260504045002 | 44 | 247 | 2.6 | 3.5 | 0.00 | 0.00 | 0.00 | 39 | 1015.1 |
| 20260504044003 | 45 | 255 | 1.7 | 3.5 | 0.00 | 0.00 | 0.00 | 37 | 1015.2 |
| 20260504043502 | 46 | 245 | 2.6 | 5.2 | 0.00 | 0.00 | 0.00 | 37 | 1015.2 |
| 20260504042502 | 45 | 255 | 3.5 | 4.3 | 0.00 | 0.00 | 0.00 | 37 | 1015.2 |
| 20260504042002 | 44 | 222 | 2.6 | 4.3 | 0.00 | 0.00 | 0.00 | 38 | 1015.3 |
| 20260504041502 | 46 | 233 | 2.6 | 3.5 | 0.00 | 0.00 | 0.00 | 37 | 1015.4 |
| 20260504041002 | 47 | 246 | 2.6 | 3.5 | 0.00 | 0.00 | 0.00 | 36 | 1015.4 |
| 20260504040502 | 47 | 269 | 3.5 | 4.3 | 0.00 | 0.00 | 0.00 | 37 | 1015.4 |
| 20260504040004 | 47 | 271 | 3.5 | 4.3 | 0.00 | 0.00 | 0.00 | 37 | 1015.3 |
| 20260504035502 | 47 | 276 | 3.5 | 4.3 | 0.00 | 0.00 | 0.00 | 37 | 1015.3 |
| 20260504035002 | 47 | 277 | 3.5 | 5.2 | 0.00 | 0.00 | 0.00 | 37 | 1015.4 |
| 20260504034502 | 47 | 271 | 3.5 | 5.2 | 0.00 | 0.00 | 0.00 | 37 | 1015.3 |
| 20260504034002 | 46 | 284 | 2.6 | 4.3 | 0.00 | 0.00 | 0.00 | 39 | 1015.3 |
| 20260504033002 | 46 | 289 | 3.5 | 4.3 | 0.00 | 0.00 | 0.00 | 41 | 1015.3 |
| 20260504032502 | 45 | 289 | 3.5 | 4.3 | 0.00 | 0.00 | 0.00 | 43 | 1015.3 |
| 20260504031502 | 46 | 302 | 3.5 | 4.3 | 0.00 | 0.00 | 0.00 | 43 | 1015.2 |
| 20260504031002 | 46 | 324 | 3.5 | 3.5 | 0.00 | 0.00 | 0.00 | 44 | 1015.2 |
| 20260504030502 | 47 | 324 | 2.6 | 3.5 | 0.00 | 0.00 | 0.00 | 43 | 1015.2 |
| 20260504030005 | 46 | 324 | 2.6 | 3.5 | 0.00 | 0.00 | 0.00 | 43 | 1015.2 |
| 20260504025002 | 47 | 324 | 3.5 | 4.3 | 0.00 | 0.00 | 0.00 | 41 | 1015.2 |
| 20260504024002 | 48 | 324 | 2.6 | 4.3 | 0.00 | 0.00 | 0.00 | 40 | 1015.0 |
| 20260504023502 | 48 | 324 | 2.6 | 4.3 | 0.00 | 0.00 | 0.00 | 39 | 1015.0 |
| 20260504023002 | 49 | 352 | 3.5 | 4.3 | 0.00 | 0.00 | 0.00 | 39 | 1015.0 |
| 20260504022502 | 49 | 352 | 4.3 | 4.3 | 0.00 | 0.00 | 0.00 | 39 | 1015.0 |
| 20260504022002 | 49 | 352 | 3.5 | 5.2 | 0.00 | 0.00 | 0.00 | 40 | 1015.1 |
| 20260504021502 | 49 | 353 | 3.5 | 5.2 | 0.00 | 0.00 | 0.00 | 39 | 1015.0 |
| 20260504021002 | 50 | 351 | 4.3 | 5.2 | 0.00 | 0.00 | 0.00 | 38 | 1015.0 |
| 20260504020502 | 51 | 345 | 4.3 | 5.2 | 0.00 | 0.00 | 0.00 | 37 | 1015.0 |
| 20260504015502 | 53 | 341 | 5.2 | 8.7 | 0.00 | 0.00 | 0.00 | 32 | 1015.0 |
| 20260504015002 | 55 | 338 | 6.1 | 9.6 | 0.00 | 0.00 | 0.00 | 30 | 1014.9 |
| 20260504014502 | 55 | 340 | 7.0 | 8.7 | 0.00 | 0.00 | 0.00 | 29 | 1015.0 |
| 20260504014002 | 57 | 340 | 7.8 | 11.3 | 0.00 | 0.00 | 0.00 | 27 | 1015.0 |
| 20260504013502 | 58 | 335 | 9.6 | 15.6 | 0.00 | 0.00 | 0.00 | 25 | 1015.0 |
| 20260504013002 | 58 | 335 | 10.4 | 15.6 | 0.00 | 0.00 | 0.00 | 25 | 1015.0 |
| 20260504012002 | 58 | 335 | 12.2 | 20.0 | 0.00 | 0.00 | 0.00 | 24 | 1014.9 |
| 20260504011502 | 59 | 345 | 13.0 | 20.0 | 0.00 | 0.00 | 0.00 | 23 | 1014.9 |
| 20260504011002 | 59 | 348 | 13.0 | 16.5 | 0.00 | 0.00 | 0.00 | 23 | 1014.9 |
| 20260504010502 | 60 | 338 | 13.0 | 18.2 | 0.00 | 0.00 | 0.00 | 24 | 1015.0 |
| 20260504010004 | 60 | 354 | 12.2 | 18.2 | 0.00 | 0.00 | 0.00 | 23 | 1014.9 |
| 20260504005502 | 60 | 333 | 11.3 | 17.4 | 0.00 | 0.00 | 0.00 | 23 | 1015.0 |
| 20260504005002 | 60 | 329 | 12.2 | 18.2 | 0.00 | 0.00 | 0.00 | 21 | 1014.9 |
| 20260504004002 | 61 | 312 | 11.3 | 19.1 | 0.00 | 0.00 | 0.00 | 19 | 1014.9 |
| 20260504003502 | 61 | 311 | 13.0 | 19.1 | 0.00 | 0.00 | 0.00 | 17 | 1014.9 |
| 20260504003002 | 60 | 343 | 11.3 | 19.1 | 0.00 | 0.00 | 0.00 | 20 | 1014.9 |
| 20260504002502 | 61 | 325 | 11.3 | 21.7 | 0.00 | 0.00 | 0.00 | 20 | 1015.2 |
| 20260504001502 | 61 | 297 | 7.0 | 13.9 | 0.00 | 0.00 | 0.00 | 17 | 1014.9 |
| 20260504001002 | 60 | 284 | 7.8 | 13.0 | 0.00 | 0.00 | 0.00 | 18 | 1015.0 |
| 20260504000502 | 60 | 298 | 10.4 | 18.2 | 0.00 | 0.00 | 0.00 | 20 | 1015.3 |
| 20260504000006 | 61 | 300 | 15.6 | 39.1 | 0.00 | 0.00 | 0.00 | 19 | 1015.4 |
| 20260503235502 | 60 | 314 | 20.0 | 39.1 | 0.00 | 0.00 | 0.00 | 20 | 1015.3 |
| 20260503235003 | 61 | 319 | 14.8 | 28.7 | 0.00 | 0.00 | 0.00 | 19 | 1015.1 |
| 20260503234502 | 61 | 293 | 11.3 | 20.0 | 0.00 | 0.00 | 0.00 | 19 | 1015.0 |
| 20260503234002 | 61 | 295 | 13.9 | 21.7 | 0.00 | 0.00 | 0.00 | 17 | 1015.2 |
| 20260503233502 | 62 | 299 | 16.5 | 27.8 | 0.00 | 0.00 | 0.00 | 18 | 1015.1 |
| 20260503233002 | 62 | 294 | 14.8 | 27.8 | 0.00 | 0.00 | 0.00 | 19 | 1015.3 |
| 20260503232502 | 62 | 281 | 13.0 | 22.6 | 0.00 | 0.00 | 0.00 | 17 | 1015.0 |
| 20260503231502 | 63 | 300 | 12.2 | 21.7 | 0.00 | 0.00 | 0.00 | 17 | 1015.2 |
| 20260503231002 | 63 | 329 | 13.9 | 19.1 | 0.00 | 0.00 | 0.00 | 16 | 1015.2 |
| 20260503230502 | 63 | 311 | 15.6 | 21.7 | 0.00 | 0.00 | 0.00 | 16 | 1015.4 |
| 20260503225502 | 63 | 300 | 12.2 | 21.7 | 0.00 | 0.00 | 0.00 | 19 | 1015.1 |
| 20260503224502 | 63 | 279 | 17.4 | 25.2 | 0.00 | 0.00 | 0.00 | 16 | 1015.3 |
| 20260503224002 | 64 | 337 | 17.4 | 25.2 | 0.00 | 0.00 | 0.00 | 17 | 1015.3 |
| 20260503223503 | 63 | 330 | 14.8 | 24.3 | 0.00 | 0.00 | 0.00 | 17 | 1015.2 |
| 20260503222002 | 62 | 302 | 11.3 | 19.1 | 0.00 | 0.00 | 0.00 | 18 | 1015.2 |
| 20260503221502 | 61 | 314 | 13.0 | 19.1 | 0.00 | 0.00 | 0.00 | 16 | 1015.5 |
| 20260503221003 | 62 | 328 | 13.9 | 21.7 | 0.00 | 0.00 | 0.00 | 17 | 1015.4 |
| 20260503220503 | 62 | 318 | 14.8 | 22.6 | 0.00 | 0.00 | 0.00 | 18 | 1015.4 |
| 20260503220004 | 62 | 316 | 13.9 | 22.6 | 0.00 | 0.00 | 0.00 | 19 | 1015.6 |
| 20260503215001 | 62 | 328 | 12.2 | 20.0 | 0.00 | 0.00 | 0.00 | 19 | 1015.8 |
| 20260503214001 | 61 | 302 | 16.5 | 21.7 | 0.00 | 0.00 | 0.00 | 19 | 1015.9 |
| 20260503213502 | 61 | 325 | 15.6 | 25.2 | 0.00 | 0.00 | 0.00 | 19 | 1016.0 |
| 20260503213002 | 62 | 309 | 13.9 | 23.5 | 0.00 | 0.00 | 0.00 | 18 | 1016.0 |
| 20260503212002 | 61 | 327 | 12.2 | 21.7 | 0.00 | 0.00 | 0.00 | 18 | 1016.1 |
| 20260503211002 | 61 | 300 | 15.6 | 25.2 | 0.00 | 0.00 | 0.00 | 20 | 1016.3 |
| 20260503210502 | 61 | 316 | 15.6 | 21.7 | 0.00 | 0.00 | 0.00 | 21 | 1016.3 |
| 20260503210006 | 61 | 333 | 13.9 | 21.7 | 0.00 | 0.00 | 0.00 | 19 | 1016.4 |
| 20260503205502 | 61 | 329 | 12.2 | 19.1 | 0.00 | 0.00 | 0.00 | 21 | 1016.5 |
| 20260503205002 | 61 | 314 | 13.0 | 19.1 | 0.00 | 0.00 | 0.00 | 20 | 1016.6 |
| 20260503204502 | 60 | 333 | 14.8 | 22.6 | 0.00 | 0.00 | 0.00 | 20 | 1016.6 |
| 20260503204002 | 60 | 343 | 16.5 | 25.2 | 0.00 | 0.00 | 0.00 | 21 | 1016.6 |
| 20260503203002 | 61 | 320 | 13.9 | 25.2 | 0.00 | 0.00 | 0.00 | 21 | 1016.6 |
| 20260503202002 | 60 | 347 | 14.8 | 23.5 | 0.00 | 0.00 | 0.00 | 21 | 1016.8 |
| 20260503201002 | 60 | 311 | 15.6 | 22.6 | 0.00 | 0.00 | 0.00 | 21 | 1016.8 |
| 20260503200502 | 60 | 323 | 13.0 | 22.6 | 0.00 | 0.00 | 0.00 | 20 | 1016.9 |
| 20260503200004 | 61 | 314 | 10.4 | 17.4 | 0.00 | 0.00 | 0.00 | 20 | 1016.9 |
| 20260503194001 | 61 | 308 | 10.4 | 18.2 | 0.00 | 0.00 | 0.00 | 21 | 1016.7 |
| 20260503193501 | 61 | 330 | 12.2 | 19.1 | 0.00 | 0.00 | 0.00 | 21 | 1016.8 |
| 20260503193001 | 62 | 323 | 13.9 | 22.6 | 0.00 | 0.00 | 0.00 | 21 | 1016.8 |
| 20260503192502 | 63 | 300 | 12.2 | 22.6 | 0.00 | 0.00 | 0.00 | 19 | 1016.8 |
| 20260503192001 | 61 | 291 | 12.2 | 20.9 | 0.00 | 0.00 | 0.00 | 21 | 1017.0 |
| 20260503191501 | 61 | 291 | 15.6 | 22.6 | 0.00 | 0.00 | 0.00 | 21 | 1017.0 |
| 20260503191002 | 61 | 285 | 15.6 | 24.3 | 0.00 | 0.00 | 0.00 | 21 | 1017.0 |